Home   Weather   Lawrence   Past weeks

Flag for USA Past Weather in Lawrence, Kansas, USA — Yesterday and Last 2 Weeks

Now
52 °F

Partly sunny.


Feels Like: 50 °F
Forecast: 33 / 43 °F
Wind: 7 mph from Southeast

Location: Lawrence Municipal Airport

Current Time: Jan 21, 2017 at 6:10:42 pm

Latest Report: Jan 21, 2017 at 4:52 pm


Visibility: 10 mi

Pressure: 29.49 "Hg

Humidity: 72%

Dew Point: 43 °F

Location of LawrenceLocation

Past Weather in Lawrence — Graph

°F

Lawrence Temperature Yesterday

Maximum temperature yesterday: 53 °F (at 2:52 pm)
Minimum temperature yesterday: 39 °F (at 10:34 pm)
Average temperature yesterday: 46 °F

High & Low Weather Summary for the Past Weeks

 TemperatureHumidityPressure
High64 °F (Jan 11, 1:52 pm)100% (Jan 15, 8:52 am)30.79 "Hg (Jan 15, 8:52 am)
Low-4 °F (Jan 6, 11:52 pm)43% (Jan 11, 1:52 pm)29.35 "Hg (Jan 10, 5:52 am)
Average33 °F85%30.06 "Hg
* Reported Jan 6 4:52 pm — Jan 21 4:52 pm, Lawrence, Weather by CustomWeather, © 2017

Note: Actual official high and low records may vary slightly from our data, if they occured in-between our weather recording intervals... More about our weather records

Advertising

Lawrence Weather History for the Previous 24 Hours

Scroll right to see more
 ConditionsComfort  
Time TempWeatherWind HumidityBarometerVisibility
4:52 pm
Sat, Jan 21
52 °FPartly sunny.7 mph72%29.49 "Hg10 mi
3:52 pm55 °FSunny.6 mph59%29.47 "Hg10 mi
2:52 pm56 °FSunny.7 mph58%29.48 "Hg10 mi
1:52 pm55 °FSunny.8 mph62%29.47 "Hg10 mi
12:52 pm52 °FSunny.9 mph72%29.50 "Hg10 mi
11:52 am47 °FPassing clouds.6 mph83%29.54 "Hg10 mi
11:05 am44 °FScattered clouds.5 mph89%29.55 "Hg8 mi
10:52 am43 °FPartly sunny.5 mph93%29.56 "Hg7 mi
9:52 am41 °FFog.9 mph100%29.56 "Hg4 mi
9:26 am39 °FFog.12 mph100%29.55 "Hg3 mi
8:52 am39 °FFog.7 mph100%29.53 "Hg2 mi
8:15 am39 °FFog.6 mph100%29.50 "Hg1 mi
7:52 am39 °FFog.3 mph100%29.49 "Hg0 mi
7:14 am39 °FFog.No wind100%29.49 "Hg0 mi
6:52 am38 °FFog.No wind100%29.48 "Hg0 mi
6:17 am38 °FFog.5 mph100%29.48 "Hg1 mi
5:59 am38 °FFog.7 mph100%29.47 "Hg2 mi
5:17 am38 °FFog.5 mph100%29.46 "Hg4 mi
5:04 am37 °FFog.3 mph100%29.45 "Hg1 mi
4:20 am38 °FFog.No wind100%29.46 "Hg1 mi
3:52 am39 °FFog.6 mph100%29.45 "Hg2 mi
3:29 am37 °FFog.5 mph100%29.45 "Hg1 mi
3:04 am37 °FFog.7 mph100%29.45 "Hg3 mi
2:30 am38 °FFog.6 mph100%29.45 "Hg2 mi
1:56 am35 °FFog.6 mph100%29.44 "Hg1 mi
1:18 am37 °FFog.8 mph100%29.41 "Hg2 mi
12:23 am38 °FFog.6 mph100%29.43 "Hg3 mi
12:06 am37 °FFog.6 mph100%29.43 "Hg3 mi
11:36 pm
Fri, Jan 20
40 °FFog.3 mph100%29.44 "Hg2 mi
11:10 pm39 °FFog.5 mph100%29.45 "Hg3 mi
10:34 pm39 °FFog.8 mph100%29.44 "Hg4 mi
9:52 pm46 °FPartly cloudy.7 mph96%29.44 "Hg7 mi
8:52 pm43 °FFog.6 mph100%29.45 "Hg5 mi
7:52 pm48 °FFog.3 mph96%29.46 "Hg5 mi
6:52 pm49 °FFog.No wind97%29.46 "Hg6 mi
Weather by CustomWeather, © 2017

See weather overviewHow to use our weather pages